[Date Prev][Date Next][Thread Prev][Thread Next] - [Date Index][Thread Index][Author Index]
2 Line ISS Keps 12-17
- Subject: [sarex] 2 Line ISS Keps 12-17
- From: "Dave Larsen PhD" <doc@xxxxxxxxxxx>
- Date: Mon, 17 Dec 2001 04:50:29 -0800
ISS
1 25544U 98067A 01351.18686802 .00085740 00000-0 10430-2 0 8554
2 25544 51.6391 247.8782 0003126 39.0995 97.4165 15.59804709175634
----
Via the sarex mailing list at AMSAT.ORG courtesy of AMSAT-NA.
To unsubscribe, send "unsubscribe sarex" to Majordomo@amsat.org
AMSAT Home